Regional Weather Roundup
Issued by NWS Newport/Morehead, NC

Current Version | Previous Version | Graphics & Text | Print | Product List | Glossary Off
Versions: 1 2 3 4 5 6 7 8 9 10 11 12 13 14 15 16 17 18 19 20 21 22 23 24 25 26 27 28 29 30 31 32 33 34 35 36 37 38 39 40 41 42 43 44 45 46 47 48 49 50

000
ASUS42 KMHX 040028
RWRMHX
WEATHER ROUNDUP FOR EASTERN NORTH CAROLINA
NATIONAL WEATHER SERVICE NEWPORT/MOREHEAD CITY NC
700 PM EST TUE MAR 03 2015

NOTE: "FAIR" INDICATES FEW OR NO CLOUDS BELOW 12,000 FEET
WITH NO SIGNIFICANT WEATHER AND/OR OBSTRUCTIONS TO VISIBILITY

NCZ015>017-031-032-045>047-102-103-040100-
NORTH COAST

CITY           SKY/WX    TMP DP  RH WIND       PRES   REMARKS
EDENTON        CLOUDY    41  37  84 CALM      30.17F FOG
ELIZABETH CITY CLOUDY    43  36  76 W7        30.17S
KITTY HAWK     CLOUDY    51  45  79 S9        30.14F
MANTEO         CLOUDY    45  41  87 S9        30.16F

$$

NCZ045>047-081-094-103-104-040100-
CENTRAL COAST

CITY           SKY/WX    TMP DP  RH WIND       PRES   REMARKS
FRISCO         CLOUDY    53  48  83 S13       30.18F
SWANQUARTER      N/A     48 N/A N/A SE2       30.12S

$$

NCZ095-097-098-100-101-040100-
SOUTHERN COAST

CITY           SKY/WX    TMP DP  RH WIND       PRES   REMARKS
BEAUFORT       CLOUDY    57  54  89 S10       30.16F
CEDAR ISLAND     N/A     59 N/A N/A S7G17     30.18F
JACKSONVILLE   LGT RAIN  46  45  93 NW7       30.17F VSB 1/2
PINEY ISLAND     N/A    N/A N/A N/A MISG      30.16F
WILMINGTON     LGT RAIN  46  45  96 NW7       30.17S FOG


$$

NCZ011>013-027>030-043-044-078>080-089-090>093-098-040100-
COASTAL PLAIN

CITY           SKY/WX    TMP DP  RH WIND       PRES   REMARKS
AHOSKIE        CLOUDY    37  36  94 S3        30.16F FOG
CLINTON        DRIZZLE   39  39 100 CALM      30.18F
ELIZABETHTOWN  DRIZZLE   40  40 100 CALM      30.17F
GOLDSBORO      CLOUDY    40  40 100 CALM      30.15F FOG
GREENVILLE     DRIZZLE   41  39  93 CALM      30.19F
HAVELOCK       DRIZZLE   46  42  86 N3        30.18S
KENANSVILLE    CLOUDY    40  39  99 CALM      30.18F FOG
KINSTON        DRIZZLE   41  41 100 CALM      30.19F
NEW BERN       CLOUDY    46  42  86 NW3       30.19S
RICHLANDS      CLOUDY    43  39  87 NW3       30.18F
ROCKY MOUNT    CLOUDY    38  37  97 CALM      30.16F FOG
WASHINGTON     DRIZZLE   41  40  97 CALM      30.17F
WHITEVILLE     CLOUDY    42  41  95 CALM      30.17F FOG

$$

AMZ130-135-150-152-154-156-158-170-250-252-270-ANZ085-086-088-633-658-670-040100-
MARINE OBSERVATIONS

STATION/POSITION TIME  TEMP    WIND        PRES    WAVE   SWELL
                       AIR SEA DIR/SP/G            HT/PER HT/PER
                 (UTC) (F)     (DEG/KT/KT) (MB)    (FT/S) (FT/S)
CHESAPEAKE LIGHT 0000   37     220/ 10/ 10 1021.2
64 E VA BEACH    2350   58 59  180/ 25/ 31 1020.0    4/ 4   2/ 7
DUCK             0000   48 35  190/ 13/ 16 1020.0
2 E DUCK         2311      35                N/A     3/ 6
10 NE DUCK       2322      37                N/A     3/ 8
OREGON INLET     0000   47 41  160/  8/ 11 1021.6
HATTERAS CG      0000   52 44  160/  9/ 12 1021.9
CAPE LOOKOUT     0000   56     150/ 15/ 16 1020.9
BEAUFORT LAB     0000   55 44  160/  8/ 10 1020.3
27 SE WRIGHTSVLE NOT AVBL
5 SE WRIGHTSVLE  NOT AVBL
225 S CAPE HAT   2350   67 72  150/ 16/ 19 1024.6    6/ 9   5/ 9
41 SE CHARLESTON 2350   61 68  360/  6/  8 1021.0    5/ 8   5/ 8

$$


USA.gov is the U.S. government's official web portal to all federal, state and local government web resources and services.